DW5918 Weather Reports


Display with metric or nautical units.
time (UTC)temp
F
wind
direction
speed
MPH
gust
MPH
rain 1hr
in
rain 24hr
in
rain mn
in
humidity
%
barometer
mb
20260831084628 60 334 0.0 0.0 0.00 0.03 0.00 1 1019.0
20260831083102 60 334 0.0 1.0 0.00 0.03 0.00 1 1019.1
20260831081510 60 334 0.0 0.0 0.00 0.03 0.00 1 1018.9
20260831080128 60 334 0.0 0.0 0.00 0.03 0.00 1 1018.9
20260831074520 60 334 0.0 1.0 0.00 0.03 0.00 1 1018.8
20260831073106 61 334 0.0 1.0 0.00 0.03 0.00 1 1018.8
20260831071542 61 334 0.0 1.0 0.00 0.03 0.00 1 1018.8
20260831064545 61 59 0.0 1.0 0.00 0.03 0.00 1 1018.8
20260831063127 61 60 1.0 3.0 0.00 0.03 0.00 1 1018.9
20260831061548 61 257 0.0 1.0 0.00 0.03 0.00 1 1018.7
20260831060004 61 246 0.0 2.0 0.00 0.03 0.00 1 1018.9
20260831054601 61 241 0.0 2.0 0.00 0.03 0.00 1 1018.7
20260831053010 62 235 0.0 3.0 0.00 0.03 0.00 1 1018.6
20260831051603 62 298 0.0 2.0 0.00 0.03 0.00 1 1018.7
20260831050021 62 309 0.0 2.0 0.00 0.03 0.00 1 1018.2
20260831044646 62 309 0.0 3.0 0.00 0.03 0.00 1 1018.5
20260831043035 62 310 0.0 1.0 0.00 0.03 0.00 1 1018.7
20260831041634 62 310 0.0 4.0 0.00 0.03 0.00 1 1018.4
20260831040052 62 261 0.0 1.0 0.00 0.03 0.00 1 1018.5
20260831033131 63 259 0.0 0.0 0.00 0.03 0.03 1 1018.7
20260831031552 63 327 0.0 1.0 0.00 0.03 0.03 1 1018.6
20260831030007 63 327 0.0 2.0 0.00 0.03 0.03 1 1018.5
20260831024559 63 261 0.0 1.0 0.00 0.03 0.03 1 1018.7
20260831023016 63 261 0.0 2.0 0.00 0.03 0.03 1 1018.7
20260831021609 63 261 0.0 2.0 0.00 0.03 0.03 1 1018.8
20260831020029 64 261 0.0 0.0 0.00 0.03 0.03 1 1018.6
20260831014619 64 261 0.0 0.0 0.00 0.03 0.03 1 1018.4
20260831013045 64 261 0.0 0.0 0.00 0.03 0.03 1 1018.2
20260831011632 65 261 0.0 0.0 0.00 0.03 0.03 1 1018.3
20260831004539 66 261 0.0 0.0 0.03 0.03 0.03 1 1017.9
20260831001553 68 261 0.0 1.0 0.03 0.03 0.03 1 1017.5
20260831000014 68 261 0.0 2.0 0.00 0.00 0.00 1 1017.0
20260830234502 68 261 0.0 2.0 0.00 0.00 0.00 11 1016.8
20260830233100 68 261 0.0 1.0 0.00 0.00 0.00 19 1016.8
20260830231516 68 261 0.0 1.0 0.00 0.00 0.00 28 1016.9
20260830230110 69 261 0.0 2.0 0.00 0.00 0.00 35 1017.0
20260830224522 70 261 0.0 1.0 0.00 0.00 0.00 46 1016.9
20260830223119 70 261 0.0 3.0 0.00 0.00 0.00 51 1017.2
20260830221538 70 258 0.0 0.0 0.00 0.00 0.00 53 1017.1
20260830220002 71 281 0.0 1.0 0.00 0.00 0.00 56 1017.0
20260830214548 71 261 0.0 4.0 0.00 0.00 0.00 58 1017.0
20260830213008 71 223 0.0 1.0 0.00 0.00 0.00 58 1017.1
20260830210027 71 220 0.0 1.0 0.00 0.00 0.00 60 1017.3
20260830204614 72 143 0.0 3.0 0.00 0.00 0.00 62 1017.2
20260830203034 72 122 0.0 4.0 0.00 0.00 0.00 63 1017.3
20260830201629 73 291 1.0 7.0 0.00 0.00 0.00 65 1017.3
20260830200052 74 238 0.0 4.0 0.00 0.00 0.00 65 1017.4
20260830194507 73 222 2.0 10.0 0.00 0.00 0.00 65 1017.5
20260830193101 73 67 0.0 4.0 0.00 0.00 0.00 65 1017.7
20260830191528 72 267 0.0 3.0 0.00 0.00 0.00 65 1017.8
20260830190107 72 266 0.0 3.0 0.00 0.00 0.00 66 1018.0
20260830184524 73 277 0.0 3.0 0.00 0.00 0.00 66 1018.3
20260830183110 74 255 2.0 7.0 0.00 0.00 0.00 64 1018.4
20260830181526 75 281 1.0 4.0 0.00 0.00 0.00 63 1018.6
20260830174538 76 255 0.0 1.0 0.00 0.00 0.00 60 1018.8
20260830173006 75 255 0.0 2.0 0.00 0.00 0.00 59 1018.8
20260830171602 75 238 0.0 2.0 0.00 0.00 0.00 60 1019.0
20260830170017 74 330 0.0 2.0 0.00 0.00 0.00 58 1019.3
20260830164606 74 208 0.0 2.0 0.00 0.00 0.00 56 1019.4
20260830163028 74 223 0.0 5.0 0.00 0.00 0.00 55 1019.5
20260830161622 73 267 0.0 7.0 0.00 0.00 0.00 56 1019.6
20260830160040 73 120 0.0 4.0 0.00 0.00 0.00 58 1019.7
20260830154628 74 204 0.0 7.0 0.00 0.00 0.00 53 1019.9
20260830153042 74 250 1.0 5.0 0.00 0.00 0.00 53 1020.0
20260830151634 74 268 0.0 10.0 0.00 0.00 0.00 55 1020.0
20260830150116 73 277 0.0 2.0 0.00 0.00 0.00 60 1020.3
20260830143056 71 234 0.0 0.0 0.00 0.00 0.00 63 1020.6
20260830141516 71 234 0.0 1.0 0.00 0.00 0.00 63 1020.6
20260830140109 71 234 0.0 4.0 0.00 0.00 0.00 62 1020.6
20260830134537 69 241 0.0 3.0 0.00 0.00 0.00 66 1020.8
20260830133117 67 251 0.0 1.0 0.00 0.00 0.00 66 1020.9
20260830131539 67 240 0.0 1.0 0.00 0.00 0.00 66 1021.0
20260830130127 66 240 0.0 3.0 0.00 0.00 0.00 66 1021.1
20260830124538 65 239 0.0 1.0 0.00 0.00 0.00 65 1021.3
20260830123125 64 239 0.0 1.0 0.00 0.00 0.00 65 1021.5
20260830121551 63 239 0.0 1.0 0.00 0.00 0.00 64 1021.5
20260830120002 62 239 0.0 3.0 0.00 0.00 0.00 62 1021.5
20260830114609 62 23 0.0 0.0 0.00 0.00 0.00 61 1021.5
20260830111607 60 23 0.0 0.0 0.00 0.00 0.00 50 1021.6
20260830110027 59 23 0.0 0.0 0.00 0.00 0.00 46 1021.6
20260830104616 59 23 0.0 0.0 0.00 0.00 0.00 41 1021.6
20260830103028 58 23 0.0 0.0 0.00 0.00 0.00 39 1021.6
20260830101622 59 23 0.0 0.0 0.00 0.00 0.00 47 1021.5
20260830100035 59 23 0.0 0.0 0.00 0.00 0.00 52 1021.5
20260830094623 59 23 0.0 0.0 0.00 0.00 0.00 50 1021.6
20260830093052 58 23 0.0 0.0 0.00 0.00 0.00 44 1021.7
20260830091506 58 23 0.0 0.0 0.00 0.00 0.00 44 1021.8
20260830090127 58 23 0.0 0.0 0.00 0.00 0.00 41 1021.9